Flight Track Log - Related Links

Times and Time Zones

All times are in EDT time to prevent confusion due to time zone crossing. See the CTL22 flight status page for this flight to view local times or setup timezone preferences in your user account.

Time Position Orientation Groundspeed Altitude Reporting Facility
EDT Latitude Longitude Course Direction KTS MPH feet Rate Location/Type
Mon 10:03:06 PM 42.3942 -83.8369 297° West 160 184 6,100  Level FAA TRACON SMA TRACON (SMA)
Mon 10:03:27 PM 42.3997 -83.8539 294° West 159 183 6,100  Level FAA TRACON SMA TRACON (SMA)
Mon 10:03:47 PM 42.4033 -83.8756 283° West 155 178 6,100  Level FAA TRACON SMA TRACON (SMA)
Mon 10:04:06 PM 42.4094 -83.8922 296° West 169 194 6,100  Level FAA TRACON SMA TRACON (SMA)
Mon 10:04:28 PM 42.4156 -83.9081 298° West 162 186 6,100  Level FAA TRACON SMA TRACON (SMA)
Mon 10:04:46 PM 42.4189 -83.9253 285° West 155 178 6,100  Level FAA TRACON SMA TRACON (SMA)
Mon 10:05:07 PM 42.4247 -83.9467 290° West 156 180 6,100  Level FAA TRACON SMA TRACON (SMA)
Mon 10:05:46 PM 42.4375 -83.9794 298° West 162 186 6,100  Level FAA TRACON SMA TRACON (SMA)
Mon 10:06:11 PM 42.4436 -84.0006 291° West 159 183 6,100  Level FAA TRACON SMA TRACON (SMA)
Mon 10:06:28 PM 42.4486 -84.0178 291° West 158 182 6,100  Level FAA TRACON SMA TRACON (SMA)
Mon 10:06:48 PM 42.4550 -84.0389 292° West 159 183 6,100  Level FAA TRACON SMA TRACON (SMA)
Mon 10:07:06 PM 42.4606 -84.0558 294° West 159 183 6,100  Level FAA TRACON SMA TRACON (SMA)
Mon 10:07:26 PM 42.4661 -84.0731 294° West 159 183 6,100  Level FAA TRACON SMA TRACON (SMA)
Mon 10:07:47 PM 42.4733 -84.0939 295° West 160 184 6,100  Level FAA TRACON SMA TRACON (SMA)
Mon 10:08:00 PM 42.4018 -84.1127 297° West  Level Estimated
Mon 10:08:06 PM 42.4769 -84.1114 286° West 157 181 6,100  Level FAA TRACON SMA TRACON (SMA)
Mon 10:08:27 PM 42.4808 -84.1289 287° West 157 181 6,100  Level FAA TRACON SMA TRACON (SMA)
Mon 10:08:46 PM 42.4850 -84.1461 288° West 158 182 6,100  Level FAA TRACON SMA TRACON (SMA)
Mon 10:09:07 PM 42.4922 -84.1672 295° West 158 182 6,100  Level FAA TRACON SMA TRACON (SMA)
Mon 10:09:27 PM 42.4989 -84.1839 298° West 160 184 6,100  Level FAA TRACON SMA TRACON (SMA)
Mon 10:09:46 PM 42.5053 -84.2006 297° West 162 186 6,100  Level FAA TRACON SMA TRACON (SMA)
Mon 10:10:07 PM 42.5117 -84.2219 292° West 159 183 6,100  Level FAA TRACON SMA TRACON (SMA)
Mon 10:10:26 PM 42.5164 -84.2389 291° West 158 182 6,100 -150 Level FAA TRACON SMA TRACON (SMA)
Mon 10:10:47 PM 42.5214 -84.2611 287° West 159 183 6,000 -150 Descending FAA TRACON SMA TRACON (SMA)
Mon 10:11:06 PM 42.5253 -84.2792 286° West 160 184 6,000  Level FAA TRACON SMA TRACON (SMA)
Mon 10:11:27 PM 42.5261 -84.2836 284° West 160 184 6,000  Level FAA TRACON SMA TRACON (SMA)
Mon 10:11:47 PM 42.5261 -84.2836 324° Northwest 160 184 6,000  Level FAA TRACON SMA TRACON (SMA)
Mon 10:14:00 PM 42.5564 -84.3839 292° West  Level FlightAware Approximate
Mon 10:16:03 PM 42.6117 -84.5556 292° West 165 190 6,000  Level Chicago Center
Mon 10:17:05 PM 42.6303 -84.6108 295° West 164 189 6,100 49 Climbing Chicago Center
Mon 10:18:06 PM 42.6478 -84.6678 293° West 163 188 6,100  Level Chicago Center
Mon 10:19:07 PM 42.6622 -84.7261 289° West 163 188 6,100 -49 Level Chicago Center
Mon 10:20:08 PM 42.6781 -84.7844 290° West 166 191 6,000  Descending Chicago Center
Mon 10:21:00 PM 42.6674 -84.7540 292° West  Level FlightAware Approximate
Mon 10:21:09 PM 42.7092 -84.8342 310° West 173 199 6,100  Level Chicago Center
Mon 10:22:11 PM 42.7375 -84.8869 306° West 173 199 6,100  Level Chicago Center
Mon 10:23:12 PM 42.7672 -84.9383 308° West 173 199 6,100  Level Chicago Center
Mon 10:24:13 PM 42.7939 -84.9914 304° West 172 198 6,100 -246 Level Chicago Center
Mon 10:25:14 PM 42.8267 -85.0586 304° West 176 203 5,600 -492 Descending Chicago Center
Mon 10:26:15 PM 42.8567 -85.1208 303° West 190 219 5,100 -439 Descending Chicago Center
Mon 10:27:17 PM 42.8881 -85.1825 305° West 197 227 4,700 -439 Descending Chicago Center
Mon 10:28:18 PM 42.9025 -85.2472 287° West 182 209 4,200 -689 Descending Chicago Center
Mon 10:30:20 PM 42.8953 -85.3872 266° West 190 219 2,600 -787 Descending Chicago Center
Mon 10:31:21 PM 42.8861 -85.4483 258° West 176 203 1,800 -787 Descending Chicago Center
Mon 10:32:22 PM 42.8806 -85.4953 261° West 146 168 1,000 -787 Descending Chicago Center
Mon 10:34:00 PM 42.8667 -85.5167 270° West  Level FlightAware Approximate

Login

Don't have an account? Register now (free) for customized features, flight alerts, and more!